カタログに戻る

YAOGAN-35 02A

運用中軍事VLEO
NORAD 52907·PAYLOAD·🇨🇳 China

打ち上げ Jun 23, 2022 から Xichang Satellite Launch Center

Loading…

次のパス (今後24時間)

TLE

最新Source: Space-Track

元期: Sep 14, 2026, 13:54 UTC

1 52907U 22068A   26257.57918223  .00005398  00000-0  21116-3 0  9999
2 52907  34.9921 294.8754 0011018 173.1562 186.9305 15.25140849235548

AllMySatでYAOGAN-35 02Aをリアルタイム追跡

Download on the App Store